Change the Weather History Date:

Sunday, March 3, 2013

  Actual Average Record
Temperature  
Mean Temperature 27 °F 31 °F  
Max Temperature 31 °F 40 °F 51 °F (2011)
Min Temperature 22 °F 21 °F -14 °F (2014)
Degree Days  
Heating Degree Days 38 34  
Month to date heating degree days 120 104  
Since 1 July heating degree days 5127 5389  
Cooling Degree Days 0 0  
Month to date cooling degree days 0 0  
Year to date cooling degree days 0 0  
Moisture  
Dew Point 20 °F    
Average Humidity 74    
Maximum Humidity 84    
Minimum Humidity 63    
Precipitation  
Precipitation 0.01 in 0.05 in 0.60 in (1993)
Month to date precipitation 0.01 0.16  
Sea Level Pressure  
Sea Level Pressure 30.03 in    
Wind  
Wind Speed 10 mph (SE)    
Max Wind Speed 18 mph    
Max Gust Speed 23 mph    
Visibility 8 miles    
Events Snow    
T = Trace of Precipitation, MM = Missing Value Source: NWS Daily Summary

Daily Weather History Graph

Daily Weather History Graph

Search for Another Location

Airport or City:

Trip Planner

Search our weather history database for the weather conditions in past years. The results will help you decide how hot, cold, wet, or windy it might be!

Date:

Astronomy

Mar. 03, 2013 Rise Set
Actual Time 6:45 AM CST 6:07 PM CST
Civil Twilight 6:17 AM CST 6:35 PM CST
Nautical Twilight 5:45 AM CST 7:07 PM CST
Astronomical Twilight 5:13 AM CST 7:40 PM CST
Moon No Moon Rise 9:55 AM CST (3/3)
Length of Visible Light 12h 17m
Length of Day
11h 21m
Waning Gibbous, 63% of the Moon is Illuminated
Mar 3
Waning Gibbous
Mar 4
Last Quarter
Mar 11
New
Mar 19
First Quarter
Mar 27
Full

Hourly Weather History & Observations

Time (CST) Temp. Windchill Dew Point Humidity Pressure Visibility Wind Dir Wind Speed Gust Speed Precip Events Conditions
12:53 AM 23.0 °F 17.0 °F 17.1 °F 78% 30.19 in 9.0 mi SE 4.6 mph - N/A   Overcast
1:53 AM 21.9 °F 13.4 °F 17.1 °F 82% 30.17 in 10.0 mi SSE 6.9 mph - N/A   Overcast
2:53 AM 23.0 °F 15.8 °F 18.0 °F 81% 30.14 in 9.0 mi South 5.8 mph - N/A   Overcast
3:53 AM 23.0 °F 17.0 °F 18.0 °F 81% 30.12 in 9.0 mi ESE 4.6 mph - N/A   Overcast
4:53 AM 21.9 °F 14.5 °F 18.0 °F 85% 30.13 in 9.0 mi ESE 5.8 mph - N/A   Overcast
5:53 AM 21.9 °F 14.5 °F 17.1 °F 82% 30.13 in 10.0 mi SE 5.8 mph - N/A   Overcast
6:53 AM 21.9 °F 12.5 °F 17.1 °F 82% 30.12 in 9.0 mi SE 8.1 mph - N/A   Clear
7:53 AM 23.0 °F 13.1 °F 18.0 °F 81% 30.12 in 10.0 mi SE 9.2 mph - N/A   Overcast
8:53 AM 25.0 °F 16.3 °F 18.0 °F 75% 30.10 in 10.0 mi SE 8.1 mph - N/A   Mostly Cloudy
9:53 AM 26.1 °F 15.6 °F 19.0 °F 75% 30.10 in 10.0 mi SE 11.5 mph - N/A   Mostly Cloudy
10:53 AM 27.0 °F 17.3 °F 19.9 °F 75% 30.09 in 10.0 mi SE 10.4 mph - N/A   Clear
11:53 AM 28.9 °F 19.8 °F 21.0 °F 72% 30.07 in 10.0 mi ESE 10.4 mph - N/A   Mostly Cloudy
12:53 PM 30.0 °F 20.5 °F 21.0 °F 69% 30.03 in 10.0 mi ESE 11.5 mph - N/A   Partly Cloudy
1:53 PM 30.0 °F 20.0 °F 21.0 °F 69% 30.01 in 10.0 mi ESE 12.7 mph - N/A   Partly Cloudy
2:53 PM 30.0 °F 20.5 °F 19.9 °F 66% 29.98 in 10.0 mi SE 11.5 mph - N/A   Mostly Cloudy
3:53 PM 30.9 °F 21.2 °F 21.0 °F 67% 29.98 in 10.0 mi ESE 12.7 mph 19.6 mph N/A   Partly Cloudy
4:53 PM 30.0 °F 21.1 °F 21.9 °F 72% 29.97 in 10.0 mi ESE 10.4 mph - N/A   Clear
5:53 PM 30.0 °F 19.5 °F 21.0 °F 69% 29.96 in 10.0 mi ESE 13.8 mph - N/A   Overcast
6:53 PM 30.0 °F 18.7 °F 19.9 °F 66% 29.95 in 10.0 mi ESE 16.1 mph - N/A   Overcast
7:53 PM 28.9 °F 19.2 °F 21.9 °F 75% 29.96 in 10.0 mi ESE 11.5 mph - N/A   Overcast
8:53 PM 28.9 °F 19.2 °F 21.0 °F 72% 29.96 in 10.0 mi ESE 11.5 mph - N/A   Overcast
9:53 PM 28.9 °F 18.6 °F 21.0 °F 72% 29.96 in 7.0 mi SE 12.7 mph - 0.00 in   Overcast
10:28 PM 28.4 °F 16.6 °F 21.2 °F 74% 29.94 in 2.5 mi SE 16.1 mph - 0.00 in Snow Light Snow
10:48 PM 26.6 °F 14.7 °F 21.2 °F 80% 29.93 in 3.0 mi SE 15.0 mph - 0.00 in Snow Light Snow
10:53 PM 27.0 °F 15.6 °F 21.9 °F 81% 29.96 in 2.5 mi ESE 13.8 mph - 0.00 in Snow Light Snow
11:00 PM 26.6 °F 15.7 °F 23.0 °F 86% 29.93 in 1.8 mi ESE 12.7 mph - 0.00 in Snow Light Snow
11:25 PM 26.6 °F 14.7 °F 23.0 °F 86% 29.91 in 2.0 mi ESE 15.0 mph - 0.01 in Snow Light Snow
11:53 PM 26.1 °F 15.6 °F 24.1 °F 92% 29.94 in 2.5 mi ESE 11.5 mph 21.9 mph 0.01 in Snow Light Snow